EW5380 Weather Reports


Display with metric or nautical units.
time (UTC)temp
F
wind
direction
speed
MPH
gust
MPH
rain 1hr
in
rain 24hr
in
rain mn
in
humidity
%
barometer
mb
20260509022127 54 240 0.0 0.0 0.00 0.00 0.00 83 1015.6
20260509021624 54 240 0.0 0.0 0.00 0.00 0.00 82 1015.6
20260509021120 54 271 0.0 0.0 0.00 0.00 0.00 82 1015.6
20260509020619 54 270 0.0 0.0 0.00 0.00 0.00 82 1015.6
20260509020115 54 271 0.0 0.0 0.00 0.00 0.00 81 1015.6
20260509015615 54 271 0.0 0.0 0.00 0.00 0.00 81 1015.6
20260509015111 54 271 0.0 0.0 0.00 0.00 0.00 82 1015.6
20260509014608 54 271 0.0 0.0 0.00 0.00 0.00 81 1015.6
20260509014104 55 271 0.0 0.0 0.00 0.00 0.00 80 1015.6
20260509013601 55 283 0.0 0.0 0.00 0.00 0.00 80 1015.2
20260509013057 55 283 0.0 0.0 0.00 0.00 0.00 80 1015.2
20260509012554 55 283 0.0 0.0 0.00 0.00 0.00 79 1015.2
20260509012050 55 283 0.0 0.0 0.00 0.00 0.00 79 1015.2
20260509011548 56 284 0.0 0.0 0.00 0.00 0.00 80 1015.6
20260509011045 56 284 0.0 0.0 0.00 0.00 0.00 77 1015.2
20260509010543 56 178 0.0 0.0 0.00 0.00 0.00 78 1015.2
20260509010040 56 178 0.0 0.0 0.00 0.00 0.00 78 1015.2
20260509005538 57 178 0.0 0.0 0.00 0.00 0.00 77 1015.2
20260509005038 57 178 0.0 0.0 0.00 0.00 0.00 76 1015.2
20260509004535 57 178 0.0 0.0 0.00 0.00 0.00 75 1014.9
20260509004032 57 178 0.0 0.0 0.00 0.00 0.00 75 1014.9
20260509003530 58 178 0.0 0.0 0.00 0.00 0.00 75 1014.9
20260509003027 58 178 0.0 0.0 0.00 0.00 0.00 75 1014.9
20260509002525 58 178 0.0 0.0 0.00 0.00 0.00 74 1014.9
20260509002022 59 177 0.0 0.0 0.00 0.00 0.00 74 1014.9
20260509001519 59 177 0.0 0.0 0.00 0.00 0.00 72 1014.9
20260509001015 59 177 0.0 0.0 0.00 0.00 0.00 74 1014.9
20260509000514 59 177 0.0 0.0 0.00 0.00 0.00 74 1014.9
20260509000009 59 177 0.0 0.0 0.00 0.00 0.00 73 1014.9
20260508235508 59 177 0.0 0.0 0.00 0.00 0.00 74 1014.9
20260508235003 60 177 0.0 0.0 0.00 0.00 0.00 74 1014.4
20260508234500 60 177 0.0 0.0 0.00 0.00 0.00 73 1014.4
20260508233958 60 177 0.0 0.0 0.00 0.00 0.00 73 1014.9
20260508233457 60 176 0.0 1.0 0.00 0.00 0.00 75 1014.9
20260508232953 61 174 1.0 2.0 0.00 0.00 0.00 73 1014.9
20260508232450 61 156 0.0 4.0 0.00 0.00 0.00 72 1014.4
20260508231948 61 282 0.0 3.0 0.00 0.00 0.00 71 1014.4
20260508231445 62 250 0.0 2.0 0.00 0.00 0.00 70 1014.4
20260508230941 62 250 0.0 2.0 0.00 0.00 0.00 68 1014.4
20260508230438 62 250 0.0 2.0 0.00 0.00 0.00 68 1014.4
20260508225935 62 251 0.0 2.0 0.00 0.00 0.00 67 1014.9
20260508225432 62 214 0.0 1.0 0.00 0.00 0.00 67 1014.4
20260508224929 62 214 0.0 1.0 0.00 0.00 0.00 69 1014.4
20260508224427 63 219 0.0 0.0 0.00 0.00 0.00 69 1014.4
20260508223924 63 292 0.0 0.0 0.00 0.00 0.00 67 1014.4
20260508223422 63 161 0.0 0.0 0.00 0.00 0.00 70 1014.9
20260508222919 63 175 0.0 0.0 0.00 0.00 0.00 69 1014.9
20260508222416 63 199 0.0 0.0 0.00 0.00 0.00 66 1014.9
20260508221913 63 297 0.0 0.0 0.00 0.00 0.00 64 1014.4
20260508221408 63 98 0.0 4.0 0.00 0.00 0.00 68 1014.4
20260508220905 63 96 1.0 4.0 0.00 0.00 0.00 66 1014.4
20260508220401 64 188 0.0 2.0 0.00 0.00 0.00 68 1014.4
20260508215858 64 191 0.0 4.0 0.00 0.00 0.00 65 1014.4
20260508215355 64 252 0.0 2.0 0.00 0.00 0.00 65 1014.4
20260508214851 64 287 0.0 4.0 0.00 0.00 0.00 65 1014.4
20260508214349 64 248 0.0 4.0 0.00 0.00 0.00 66 1014.9
20260508213845 64 228 0.0 2.0 0.00 0.00 0.00 64 1014.9
20260508213342 64 103 1.0 2.0 0.00 0.00 0.00 67 1014.9
20260508212838 64 178 1.0 2.0 0.00 0.00 0.00 64 1014.4
20260508212335 64 130 1.0 2.0 0.00 0.00 0.00 67 1014.4
20260508211825 64 153 1.0 4.0 0.00 0.00 0.00 69 1014.4
20260508211320 64 355 1.0 4.0 0.00 0.00 0.00 64 1014.4
20260508210819 64 114 1.0 4.0 0.00 0.00 0.00 65 1014.1
20260508210315 64 117 1.0 4.0 0.00 0.00 0.00 64 1014.4
20260508205812 64 131 1.0 5.0 0.00 0.00 0.00 67 1014.4
20260508205308 65 163 1.0 5.0 0.00 0.00 0.00 66 1014.4
20260508204804 65 118 0.0 4.0 0.00 0.00 0.00 67 1014.4
20260508204301 65 288 0.0 1.0 0.00 0.00 0.00 64 1014.4
20260508203758 65 292 0.0 1.0 0.00 0.00 0.00 64 1014.4
20260508203254 65 292 0.0 1.0 0.00 0.00 0.00 62 1014.9
20260508202749 65 112 0.0 0.0 0.00 0.00 0.00 61 1014.9
20260508202247 65 112 0.0 0.0 0.00 0.00 0.00 61 1014.9
20260508201744 65 319 0.0 0.0 0.00 0.00 0.00 61 1014.4
20260508201240 65 298 0.0 0.0 0.00 0.00 0.00 61 1014.4
20260508200737 65 205 0.0 0.0 0.00 0.00 0.00 62 1014.9
20260508200233 64 271 0.0 0.0 0.00 0.00 0.00 57 1014.9
20260508195730 64 293 0.0 0.0 0.00 0.00 0.00 62 1015.2
20260508195226 64 111 0.0 2.0 0.00 0.00 0.00 63 1015.2
20260508194723 64 313 0.0 2.0 0.00 0.00 0.00 65 1015.2
20260508194220 64 119 0.0 4.0 0.00 0.00 0.00 63 1015.2
20260508193717 63 290 1.0 4.0 0.00 0.00 0.00 63 1015.6
20260508193214 63 117 1.0 5.0 0.00 0.00 0.00 62 1015.6
20260508192710 64 133 2.0 5.0 0.00 0.00 0.00 67 1015.6
20260508192207 64 120 1.0 5.0 0.00 0.00 0.00 63 1015.6
20260508191705 64 123 1.0 4.0 0.00 0.00 0.00 64 1015.6
20260508191155 64 123 1.0 4.0 0.00 0.00 0.00 68 1015.6
20260508190653 64 101 0.0 4.0 0.00 0.00 0.00 63 1015.6
20260508190149 65 126 1.0 2.0 0.00 0.00 0.00 64 1015.9
20260508185646 65 103 1.0 6.0 0.00 0.00 0.00 62 1016.3
20260508185144 65 119 1.0 5.0 0.00 0.00 0.00 59 1015.9
20260508184641 65 306 1.0 5.0 0.00 0.00 0.00 60 1015.9
20260508184138 65 295 1.0 4.0 0.00 0.00 0.00 60 1016.3
20260508183635 64 119 1.0 4.0 0.00 0.00 0.00 62 1016.3
20260508183130 64 288 0.0 4.0 0.00 0.00 0.00 59 1016.3
20260508182627 64 75 1.0 4.0 0.00 0.00 0.00 59 1016.3
20260508182123 65 309 0.0 4.0 0.00 0.00 0.00 55 1016.3
20260508181619 65 117 0.0 2.0 0.00 0.00 0.00 61 1016.7
20260508181117 64 117 1.0 2.0 0.00 0.00 0.00 61 1016.7
20260508180613 64 130 1.0 4.0 0.00 0.00 0.00 59 1016.3
20260508180110 64 0 1.0 4.0 0.00 0.00 0.00 58 1016.7
20260508175607 64 301 1.0 7.0 0.00 0.00 0.00 58 1016.7
20260508175104 64 74 1.0 7.0 0.00 0.00 0.00 54 1016.7
20260508174601 63 313 1.0 4.0 0.00 0.00 0.00 58 1016.7
20260508174058 63 320 1.0 4.0 0.00 0.00 0.00 56 1016.7
20260508173555 63 325 1.0 6.0 0.00 0.00 0.00 56 1016.7
20260508173051 63 329 1.0 6.0 0.00 0.00 0.00 54 1016.7
20260508172548 63 338 0.0 2.0 0.00 0.00 0.00 52 1016.7
20260508172045 62 289 1.0 5.0 0.00 0.00 0.00 53 1017.0
20260508171541 63 292 1.0 5.0 0.00 0.00 0.00 56 1017.0
20260508171038 62 33 1.0 4.0 0.00 0.00 0.00 53 1017.0
20260508170535 62 314 1.0 4.0 0.00 0.00 0.00 57 1017.0
20260508170032 62 350 1.0 4.0 0.00 0.00 0.00 57 1017.0
20260508165530 62 321 0.0 4.0 0.00 0.00 0.00 59 1017.3
20260508165026 61 271 1.0 6.0 0.00 0.00 0.00 57 1017.3
20260508164523 61 304 1.0 6.0 0.00 0.00 0.00 60 1017.3
20260508164019 61 307 1.0 4.0 0.00 0.00 0.00 57 1017.3
20260508163517 61 132 1.0 4.0 0.00 0.00 0.00 58 1017.8
20260508163013 60 274 1.0 4.0 0.00 0.00 0.00 59 1017.8
20260508162510 60 309 1.0 6.0 0.00 0.00 0.00 58 1017.8
20260508162008 60 309 1.0 6.0 0.00 0.00 0.00 57 1017.8
20260508161504 60 59 1.0 5.0 0.00 0.00 0.00 58 1017.8
20260508161001 60 157 1.0 4.0 0.00 0.00 0.00 58 1017.8
20260508160500 60 344 1.0 4.0 0.00 0.00 0.00 56 1018.1
20260508155956 60 79 1.0 4.0 0.00 0.00 0.00 55 1018.1
20260508155454 60 294 1.0 4.0 0.00 0.00 0.00 61 1018.1
20260508154950 60 348 1.0 6.0 0.00 0.00 0.00 64 1018.1
20260508154448 60 136 1.0 6.0 0.00 0.00 0.00 58 1018.1
20260508153944 60 324 1.0 5.0 0.00 0.00 0.00 61 1018.5
20260508153441 59 293 1.0 6.0 0.00 0.00 0.00 63 1018.5
20260508152938 59 297 1.0 6.0 0.00 0.00 0.00 59 1018.5
20260508152434 58 310 0.0 4.0 0.00 0.00 0.00 63 1018.5
20260508151930 58 331 0.0 0.0 0.00 0.00 0.00 63 1018.5
20260508151427 58 330 0.0 2.0 0.00 0.00 0.00 63 1018.5
20260508150923 58 300 1.0 6.0 0.00 0.00 0.00 68 1018.5
20260508150421 57 300 1.0 6.0 0.00 0.00 0.00 67 1018.5
20260508145916 57 291 0.0 4.0 0.00 0.00 0.00 71 1018.5
20260508145413 56 295 1.0 4.0 0.00 0.00 0.00 70 1018.5
20260508144910 56 275 1.0 5.0 0.00 0.00 0.00 68 1018.5
20260508144408 55 284 1.0 5.0 0.00 0.00 0.00 69 1018.5
20260508143905 55 316 0.0 2.0 0.00 0.00 0.00 71 1018.5
20260508143402 54 297 0.0 0.0 0.00 0.00 0.00 72 1018.5
20260508142858 54 284 0.0 0.0 0.00 0.00 0.00 75 1018.5
20260508142355 54 149 0.0 0.0 0.00 0.00 0.00 75 1018.5
20260508141852 53 149 0.0 0.0 0.00 0.00 0.00 74 1018.5
20260508141349 53 296 0.0 0.0 0.00 0.00 0.00 77 1018.5
20260508140847 53 306 0.0 0.0 0.00 0.00 0.00 77 1018.5
20260508140343 53 306 0.0 0.0 0.00 0.00 0.00 78 1018.8
20260508135839 53 305 0.0 0.0 0.00 0.00 0.00 78 1018.8
20260508135336 52 304 0.0 0.0 0.00 0.00 0.00 81 1018.8
20260508134832 52 296 0.0 0.0 0.00 0.00 0.00 79 1018.8
20260508134329 52 296 0.0 0.0 0.00 0.00 0.00 79 1018.8
20260508133825 52 296 0.0 0.0 0.00 0.00 0.00 79 1018.8
20260508133324 52 294 0.0 0.0 0.00 0.00 0.00 79 1018.8
20260508132820 52 294 0.0 0.0 0.00 0.00 0.00 81 1018.8
20260508132317 52 270 0.0 0.0 0.00 0.00 0.00 81 1018.8
20260508131813 52 268 0.0 0.0 0.00 0.00 0.00 82 1018.8
20260508131309 51 268 0.0 0.0 0.00 0.00 0.00 83 1018.8
20260508130807 51 265 0.0 0.0 0.00 0.00 0.00 83 1018.5
20260508130304 51 254 0.0 0.0 0.00 0.00 0.00 83 1018.5
20260508125759 50 254 0.0 0.0 0.00 0.00 0.00 86 1018.5
20260508125256 49 254 0.0 0.0 0.00 0.00 0.00 85 1018.5
20260508124754 49 257 0.0 0.0 0.00 0.00 0.00 87 1018.5
20260508124250 48 257 0.0 0.0 0.00 0.00 0.00 92 1018.5
20260508123749 48 257 0.0 0.0 0.00 0.00 0.00 92 1018.5
20260508123247 47 256 0.0 0.0 0.00 0.00 0.00 95 1018.5
20260508122743 46 256 0.0 0.0 0.00 0.00 0.00 96 1018.5
20260508122240 46 256 0.0 0.0 0.00 0.00 0.00 97 1018.5
20260508121737 45 256 0.0 0.0 0.00 0.00 0.00 98 1018.5
20260508121236 44 256 0.0 0.0 0.00 0.00 0.00 98 1018.5
20260508120732 44 256 0.0 0.0 0.00 0.00 0.00 97 1018.5
20260508120231 44 236 0.0 0.0 0.00 0.00 0.00 98 1018.1
20260508115728 44 235 0.0 0.0 0.00 0.00 0.00 98 1018.1
20260508115226 44 235 0.0 0.0 0.00 0.00 0.00 98 1018.1
20260508114722 43 235 0.0 0.0 0.00 0.00 0.00 98 1018.1
20260508114218 43 235 0.0 0.0 0.00 0.00 0.00 97 1018.1
20260508113715 43 235 0.0 0.0 0.00 0.00 0.00 97 1017.8
20260508113214 43 235 0.0 0.0 0.00 0.00 0.00 97 1017.8
20260508112709 43 235 0.0 0.0 0.00 0.00 0.00 97 1017.8
20260508112206 43 235 0.0 0.0 0.00 0.00 0.00 97 1017.3
20260508111703 43 235 0.0 0.0 0.00 0.00 0.00 97 1017.3
20260508111200 43 235 0.0 0.0 0.00 0.00 0.00 97 1017.3
20260508110657 43 235 0.0 0.0 0.00 0.00 0.00 97 1017.3
20260508110154 44 235 0.0 0.0 0.00 0.00 0.00 97 1017.3
20260508105654 44 235 0.0 0.0 0.00 0.00 0.00 97 1017.3
20260508105151 44 235 0.0 0.0 0.00 0.00 0.00 97 1017.0
20260508104649 44 235 0.0 0.0 0.00 0.00 0.00 97 1017.0
20260508104145 44 235 0.0 0.0 0.00 0.00 0.00 97 1017.0
20260508103643 44 235 0.0 0.0 0.00 0.00 0.00 97 1017.0
20260508103140 44 235 0.0 0.0 0.00 0.00 0.00 97 1016.7
20260508102637 44 235 0.0 0.0 0.00 0.00 0.00 97 1016.7
20260508102135 44 235 0.0 0.0 0.00 0.00 0.00 97 1016.7
20260508101632 44 235 0.0 0.0 0.00 0.00 0.00 97 1016.7
20260508101129 44 235 0.0 0.0 0.00 0.00 0.00 97 1016.7
20260508100626 44 235 0.0 0.0 0.00 0.00 0.00 97 1016.7
20260508100125 44 235 0.0 0.0 0.00 0.00 0.00 97 1016.3
20260508095621 44 235 0.0 0.0 0.00 0.00 0.00 97 1016.3
20260508095119 44 235 0.0 0.0 0.00 0.00 0.00 97 1016.3
20260508094615 44 235 0.0 0.0 0.00 0.00 0.00 97 1016.3
20260508094111 44 235 0.0 0.0 0.00 0.00 0.00 97 1016.3
20260508093609 43 235 0.0 0.0 0.00 0.00 0.00 96 1016.3
20260508093107 43 235 0.0 0.0 0.00 0.00 0.00 96 1016.3
20260508092603 44 235 0.0 0.0 0.00 0.00 0.00 96 1016.3
20260508092102 44 235 0.0 0.0 0.00 0.00 0.00 96 1016.3
20260508091559 44 235 0.0 0.0 0.00 0.00 0.00 96 1016.3
20260508091055 44 235 0.0 0.0 0.00 0.00 0.00 96 1015.9
20260508090554 44 235 0.0 0.0 0.00 0.00 0.00 95 1015.9
20260508090050 44 235 0.0 0.0 0.00 0.00 0.00 95 1016.3
20260508085547 44 235 0.0 0.0 0.00 0.00 0.00 95 1016.3
20260508085044 44 235 0.0 0.0 0.00 0.00 0.00 95 1016.3
20260508084541 44 235 0.0 0.0 0.00 0.00 0.00 95 1015.9
20260508084038 44 235 0.0 0.0 0.00 0.00 0.00 95 1015.9
20260508083535 45 235 0.0 0.0 0.00 0.00 0.00 95 1015.9
20260508083032 45 237 0.0 0.0 0.00 0.00 0.00 95 1015.9
20260508082528 45 133 0.0 0.0 0.00 0.00 0.00 94 1015.6
20260508082025 45 132 0.0 0.0 0.00 0.00 0.00 94 1015.6
20260508081523 45 132 0.0 0.0 0.00 0.00 0.00 94 1015.6
20260508081018 45 133 0.0 0.0 0.00 0.00 0.00 94 1015.6
20260508080516 46 133 0.0 0.0 0.00 0.00 0.00 94 1015.6
20260508080014 46 132 0.0 0.0 0.00 0.00 0.00 94 1015.6
20260508075510 46 132 0.0 0.0 0.00 0.00 0.00 94 1015.6
20260508075008 46 132 0.0 0.0 0.00 0.00 0.00 94 1015.6
20260508074506 46 129 0.0 0.0 0.00 0.00 0.00 94 1015.6
20260508074002 46 129 0.0 0.0 0.00 0.00 0.00 93 1015.6
20260508073459 46 128 0.0 0.0 0.00 0.00 0.00 92 1015.6
20260508072957 46 126 0.0 0.0 0.00 0.00 0.00 92 1015.6
20260508072452 47 126 0.0 0.0 0.00 0.00 0.00 92 1015.2
20260508071949 47 126 0.0 0.0 0.00 0.00 0.00 91 1015.2
20260508071448 47 126 0.0 2.0 0.00 0.00 0.00 91 1015.2
20260508070945 48 126 0.0 2.0 0.00 0.00 0.00 90 1015.2
20260508070443 48 126 0.0 2.0 0.00 0.00 0.00 90 1015.2
20260508065941 48 150 1.0 4.0 0.00 0.00 0.00 89 1015.2
20260508065439 48 150 1.0 4.0 0.00 0.00 0.00 88 1015.2
20260508064937 49 169 1.0 5.0 0.00 0.00 0.00 87 1015.2
20260508064434 49 142 1.0 5.0 0.00 0.00 0.00 86 1014.9
20260508063931 49 139 1.0 4.0 0.00 0.00 0.00 85 1015.2
20260508063428 49 155 1.0 4.0 0.00 0.00 0.00 85 1015.2
20260508062925 50 153 0.0 4.0 0.00 0.00 0.00 85 1015.2
20260508062423 50 195 1.0 5.0 0.00 0.00 0.00 84 1015.2
20260508061920 50 284 1.0 5.0 0.00 0.00 0.00 83 1015.2
20260508061418 50 315 1.0 4.0 0.00 0.00 0.00 83 1015.2
20260508060913 50 135 2.0 8.0 0.00 0.00 0.00 83 1015.2
20260508060411 50 289 1.0 8.0 0.00 0.00 0.00 84 1015.2
20260508055908 50 172 0.0 4.0 0.00 0.00 0.00 84 1015.2
20260508055405 50 236 0.0 4.0 0.00 0.00 0.00 84 1015.2
20260508054901 50 342 1.0 6.0 0.00 0.00 0.00 84 1015.2
20260508054358 50 263 1.0 6.0 0.00 0.00 0.00 85 1015.2
20260508053855 50 229 0.0 5.0 0.00 0.00 0.00 85 1015.2
20260508053352 50 150 1.0 5.0 0.00 0.00 0.00 84 1015.2
20260508052850 51 150 2.0 6.0 0.00 0.00 0.00 83 1015.2
20260508052348 50 266 2.0 8.0 0.00 0.00 0.00 83 1015.2
20260508051843 50 248 2.0 7.0 0.00 0.00 0.00 84 1015.2
20260508051339 50 42 1.0 7.0 0.00 0.00 0.00 84 1015.2
20260508050835 50 102 1.0 5.0 0.00 0.00 0.00 84 1015.2
20260508050333 50 313 1.0 5.0 0.00 0.00 0.00 84 1015.2
20260508045828 50 275 1.0 9.0 0.00 0.00 0.00 85 1015.2
20260508045326 50 216 1.0 9.0 0.00 0.00 0.00 85 1015.2
20260508044824 50 282 1.0 5.0 0.00 0.00 0.00 85 1014.9
20260508044320 50 144 0.0 4.0 0.00 0.00 0.00 86 1015.2
20260508043816 49 172 1.0 3.0 0.00 0.00 0.00 86 1014.9
20260508043314 49 236 1.0 5.0 0.00 0.00 0.00 86 1014.9
20260508042810 49 271 0.0 5.0 0.00 0.00 0.00 86 1014.9
20260508042308 49 155 0.0 4.0 0.00 0.00 0.00 87 1014.9
20260508041804 49 159 0.0 4.0 0.00 0.00 0.00 86 1014.9
20260508041301 50 153 1.0 4.0 0.00 0.00 0.00 86 1014.9
20260508040757 50 148 0.0 4.0 0.00 0.00 0.00 85 1014.9
20260508040255 50 215 0.0 1.0 0.00 0.00 0.00 86 1014.9
20260508035752 50 215 0.0 1.0 0.00 0.09 0.09 85 1014.9
20260508035249 50 249 0.0 2.0 0.00 0.09 0.09 84 1014.9
20260508034745 50 249 0.0 2.0 0.00 0.09 0.09 84 1014.9
20260508034243 50 214 0.0 2.0 0.00 0.09 0.09 84 1014.9
20260508033740 50 203 0.0 1.0 0.00 0.09 0.09 84 1014.9
20260508033238 50 211 1.0 1.0 0.00 0.09 0.09 84 1015.2
20260508032735 50 261 2.0 6.0 0.00 0.09 0.09 83 1015.2
20260508032232 50 271 2.0 6.0 0.00 0.09 0.09 83 1015.2
20260508031729 50 285 1.0 6.0 0.00 0.09 0.09 83 1015.2
20260508031225 50 292 1.0 5.0 0.00 0.09 0.09 83 1014.9
20260508030722 50 269 1.0 5.0 0.00 0.09 0.09 83 1014.9
20260508030220 50 320 1.0 4.0 0.00 0.09 0.09 83 1014.9
20260508025716 50 86 0.0 4.0 0.00 0.09 0.09 83 1014.9
20260508025213 51 283 0.0 4.0 0.00 0.09 0.09 82 1014.9
20260508024709 51 281 0.0 2.0 0.00 0.09 0.09 82 1014.9
20260508024206 51 288 0.0 5.0 0.00 0.09 0.09 81 1014.4
20260508023702 51 289 1.0 6.0 0.00 0.09 0.09 81 1014.4
20260508023200 51 286 1.0 6.0 0.00 0.09 0.09 81 1014.4
20260508022655 51 239 1.0 6.0 0.00 0.09 0.09 81 1014.4